Year,Month,Day,Hour,Minute,Value (Times are PST for windspeed in km/hr)
2016,10,07,00,00,29.40
2016,10,07,00,01,27.90
2016,10,07,00,02,20.50
2016,10,07,00,03,36.50
2016,10,07,00,04,40.20
2016,10,07,00,05,32.70
2016,10,07,00,06,23.10
2016,10,07,00,07,27.80
2016,10,07,00,08,42.40
2016,10,07,00,09,46.20
2016,10,07,00,10,36.60
2016,10,07,00,11,39.40
2016,10,07,00,12,34.80
2016,10,07,00,13,34.20
2016,10,07,00,14,28.70
2016,10,07,00,15,38.80
2016,10,07,00,16,38.00
2016,10,07,00,17,37.30
2016,10,07,00,18,42.10
2016,10,07,00,19,35.90
2016,10,07,00,20,37.10
2016,10,07,00,21,26.10
2016,10,07,00,22,31.30
2016,10,07,00,23,30.30
2016,10,07,00,24,40.00
2016,10,07,00,25,37.40
2016,10,07,00,26,23.40
2016,10,07,00,27,36.80
2016,10,07,00,28,28.80
2016,10,07,00,29,24.40
2016,10,07,00,30,25.90
2016,10,07,00,31,26.20
2016,10,07,00,32,31.60
2016,10,07,00,33,41.20
2016,10,07,00,34,31.50
2016,10,07,00,35,38.10
2016,10,07,00,36,40.30
2016,10,07,00,37,35.50
2016,10,07,00,38,42.90
2016,10,07,00,39,34.20
2016,10,07,00,40,26.80
2016,10,07,00,41,31.50
2016,10,07,00,42,45.30
2016,10,07,00,43,37.90
2016,10,07,00,44,36.10
2016,10,07,00,45,47.70
2016,10,07,00,46,35.50
2016,10,07,00,47,30.70
2016,10,07,00,48,39.10
2016,10,07,00,49,41.40
2016,10,07,00,50,37.50
2016,10,07,00,51,38.60
2016,10,07,00,52,34.90
2016,10,07,00,53,36.70
2016,10,07,00,54,29.90
2016,10,07,00,55,44.60
2016,10,07,00,56,39.60
2016,10,07,00,57,30.60
2016,10,07,00,58,32.20
2016,10,07,00,59,36.20
2016,10,07,01,00,45.70
2016,10,07,01,01,38.90
2016,10,07,01,02,36.30
2016,10,07,01,03,38.90
2016,10,07,01,04,33.70
2016,10,07,01,05,42.90
2016,10,07,01,06,38.70
2016,10,07,01,07,27.40
2016,10,07,01,08,26.60
2016,10,07,01,09,41.50
2016,10,07,01,10,35.50
2016,10,07,01,11,51.40
2016,10,07,01,12,44.00
2016,10,07,01,13,32.30
2016,10,07,01,14,40.70
2016,10,07,01,15,44.50
2016,10,07,01,16,38.90
2016,10,07,01,17,43.90
2016,10,07,01,18,43.50
2016,10,07,01,19,52.00
2016,10,07,01,20,34.90
2016,10,07,01,21,34.00
2016,10,07,01,22,37.10
2016,10,07,01,23,37.70
2016,10,07,01,24,35.40
2016,10,07,01,25,41.90
2016,10,07,01,26,38.70
2016,10,07,01,27,44.70
2016,10,07,01,28,32.60
2016,10,07,01,29,32.20
2016,10,07,01,30,35.20
2016,10,07,01,31,38.50
2016,10,07,01,32,39.00
2016,10,07,01,33,39.50
2016,10,07,01,34,30.40
2016,10,07,01,35,38.80
2016,10,07,01,36,33.30
2016,10,07,01,37,35.70
2016,10,07,01,38,34.30
2016,10,07,01,39,30.50
2016,10,07,01,40,36.30
2016,10,07,01,41,32.00
2016,10,07,01,42,28.80
2016,10,07,01,43,33.90
2016,10,07,01,44,43.70
2016,10,07,01,45,39.40
2016,10,07,01,46,38.50
2016,10,07,01,47,35.10
2016,10,07,01,48,33.10
2016,10,07,01,49,35.90
2016,10,07,01,50,41.50
2016,10,07,01,51,36.70
2016,10,07,01,52,37.40
2016,10,07,01,53,25.50
2016,10,07,01,54,38.10
2016,10,07,01,55,34.50
2016,10,07,01,56,33.20
2016,10,07,01,57,34.50
2016,10,07,01,58,29.00
2016,10,07,01,59,27.20
2016,10,07,02,00,33.20
2016,10,07,02,01,31.10
2016,10,07,02,02,26.50
2016,10,07,02,03,26.80
2016,10,07,02,04,32.70
2016,10,07,02,05,44.20
2016,10,07,02,06,29.10
2016,10,07,02,07,27.70
2016,10,07,02,08,30.70
2016,10,07,02,09,27.80
2016,10,07,02,10,31.70
2016,10,07,02,11,24.60
2016,10,07,02,12,24.90
2016,10,07,02,13,27.00
2016,10,07,02,14,31.50
2016,10,07,02,15,32.70
2016,10,07,02,16,32.30
2016,10,07,02,17,31.20
2016,10,07,02,18,27.00
2016,10,07,02,19,30.80
2016,10,07,02,20,30.40
2016,10,07,02,21,25.80
2016,10,07,02,22,25.70
2016,10,07,02,23,28.90
2016,10,07,02,24,26.60
2016,10,07,02,25,30.30
2016,10,07,02,26,32.80
2016,10,07,02,27,29.90
2016,10,07,02,28,24.10
2016,10,07,02,29,24.10
2016,10,07,02,30,24.70
2016,10,07,02,31,23.70
2016,10,07,02,32,23.30
2016,10,07,02,33,19.60
2016,10,07,02,34,15.40
2016,10,07,02,35,19.50
2016,10,07,02,36,17.50
2016,10,07,02,37,23.20
2016,10,07,02,38,25.40
2016,10,07,02,39,22.20
2016,10,07,02,40,28.80
2016,10,07,02,41,22.60
2016,10,07,02,42,14.60
2016,10,07,02,43,25.90
2016,10,07,02,44,25.50
2016,10,07,02,45,33.90
2016,10,07,02,46,27.90
2016,10,07,02,47,20.20
2016,10,07,02,48,24.90
2016,10,07,02,49,27.50
2016,10,07,02,50,24.40
2016,10,07,02,51,29.60
2016,10,07,02,52,26.60
2016,10,07,02,53,23.30
2016,10,07,02,54,19.60
2016,10,07,02,55,27.70
2016,10,07,02,56,20.10
2016,10,07,02,57,17.90
2016,10,07,02,58,16.40
2016,10,07,02,59,14.40
2016,10,07,03,00,15.00
2016,10,07,03,01,17.10
2016,10,07,03,02,26.90
2016,10,07,03,03,19.90
2016,10,07,03,04,17.90
2016,10,07,03,05,22.60
2016,10,07,03,06,17.60
2016,10,07,03,07,29.80
2016,10,07,03,08,24.70
2016,10,07,03,09,22.30
2016,10,07,03,10,21.90
2016,10,07,03,11,21.60
2016,10,07,03,12,25.80
2016,10,07,03,13,28.40
2016,10,07,03,14,20.50
2016,10,07,03,15,23.00
2016,10,07,03,16,23.40
2016,10,07,03,17,25.70
2016,10,07,03,18,16.10
2016,10,07,03,19,15.30
2016,10,07,03,20,18.60
2016,10,07,03,21,19.10
2016,10,07,03,22,18.00
2016,10,07,03,23,24.50
2016,10,07,03,24,13.50
2016,10,07,03,25,16.70
2016,10,07,03,26,16.30
2016,10,07,03,27,25.70
2016,10,07,03,28,17.30
2016,10,07,03,29,19.50
2016,10,07,03,30,20.80
2016,10,07,03,31,24.10
2016,10,07,03,32,22.80
2016,10,07,03,33,22.80
2016,10,07,03,34,20.80
2016,10,07,03,35,16.70
2016,10,07,03,36,22.40
2016,10,07,03,37,20.30
2016,10,07,03,38,18.40
2016,10,07,03,39,18.00
2016,10,07,03,40,15.40
2016,10,07,03,41,17.60
2016,10,07,03,42,16.40
2016,10,07,03,43,9.30
2016,10,07,03,44,5.20
2016,10,07,03,45,9.90
2016,10,07,03,46,14.80
2016,10,07,03,47,9.40
2016,10,07,03,48,12.40
2016,10,07,03,49,10.70
2016,10,07,03,50,12.70
2016,10,07,03,51,17.90
2016,10,07,03,52,15.70
2016,10,07,03,53,15.20
2016,10,07,03,54,12.00
2016,10,07,03,55,9.10
2016,10,07,03,56,10.00
2016,10,07,03,57,13.70
2016,10,07,03,58,7.80
2016,10,07,03,59,6.40
2016,10,07,04,00,10.60
2016,10,07,04,01,16.50
2016,10,07,04,02,15.50
2016,10,07,04,03,5.60
2016,10,07,04,04,8.40
2016,10,07,04,05,12.70
2016,10,07,04,06,14.60
2016,10,07,04,07,13.70
2016,10,07,04,08,6.60
2016,10,07,04,09,2.70
2016,10,07,04,10,4.60
2016,10,07,04,11,6.90
2016,10,07,04,12,6.40
2016,10,07,04,13,11.50
2016,10,07,04,14,12.20
2016,10,07,04,15,3.80
2016,10,07,04,16,5.60
2016,10,07,04,17,12.90
2016,10,07,04,18,14.50
2016,10,07,04,19,10.30
2016,10,07,04,20,12.90
2016,10,07,04,21,8.40
2016,10,07,04,22,8.20
2016,10,07,04,23,3.70
2016,10,07,04,24,1.70
2016,10,07,04,25,8.90
2016,10,07,04,26,8.70
2016,10,07,04,27,7.20
2016,10,07,04,28,10.10
2016,10,07,04,29,8.40
2016,10,07,04,30,6.00
2016,10,07,04,31,6.90
2016,10,07,04,32,12.90
2016,10,07,04,33,11.20
2016,10,07,04,34,7.70
2016,10,07,04,35,5.20
2016,10,07,04,36,6.70
2016,10,07,04,37,3.60
2016,10,07,04,38,9.50
2016,10,07,04,39,11.00
2016,10,07,04,40,9.10
2016,10,07,04,41,8.10
2016,10,07,04,42,7.10
2016,10,07,04,43,7.60
2016,10,07,04,44,7.40
2016,10,07,04,45,7.30
2016,10,07,04,46,7.30
2016,10,07,04,47,7.30
2016,10,07,04,48,4.50
2016,10,07,04,49,6.30
2016,10,07,04,50,5.30
2016,10,07,04,51,6.80
2016,10,07,04,52,10.10
2016,10,07,04,53,8.40
2016,10,07,04,54,7.20
2016,10,07,04,55,13.60
2016,10,07,04,56,19.40
2016,10,07,04,57,16.30
2016,10,07,04,58,11.70
2016,10,07,04,59,12.70
2016,10,07,05,00,11.30
2016,10,07,05,01,12.10
2016,10,07,05,02,10.10
2016,10,07,05,03,8.80
2016,10,07,05,04,9.30
2016,10,07,05,05,13.40
2016,10,07,05,06,16.70
2016,10,07,05,07,23.30
2016,10,07,05,08,18.70
2016,10,07,05,09,18.40
2016,10,07,05,10,13.50
2016,10,07,05,11,11.70
2016,10,07,05,12,12.10
2016,10,07,05,13,9.00
2016,10,07,05,14,4.00
2016,10,07,05,15,1.20
2016,10,07,05,16,9.00
2016,10,07,05,17,13.10
2016,10,07,05,18,2.90
2016,10,07,05,19,10.50
2016,10,07,05,20,9.70
2016,10,07,05,21,4.80
2016,10,07,05,22,8.70
2016,10,07,05,23,7.70
2016,10,07,05,24,8.30
2016,10,07,05,25,7.20
2016,10,07,05,26,5.50
2016,10,07,05,27,2.30
2016,10,07,05,28,3.00
2016,10,07,05,29,8.30
2016,10,07,05,30,13.00
2016,10,07,05,31,7.30
2016,10,07,05,32,7.30
2016,10,07,05,33,6.70
2016,10,07,05,34,8.10
2016,10,07,05,35,9.50
2016,10,07,05,36,6.40
2016,10,07,05,37,5.60
2016,10,07,05,38,9.70
2016,10,07,05,39,6.00
2016,10,07,05,40,10.90
2016,10,07,05,41,12.70
2016,10,07,05,42,7.10
2016,10,07,05,43,9.30
2016,10,07,05,44,8.60
2016,10,07,05,45,7.10
2016,10,07,05,46,10.20
2016,10,07,05,47,11.60
2016,10,07,05,48,15.10
2016,10,07,05,49,13.40
2016,10,07,05,50,13.30
2016,10,07,05,51,16.80
2016,10,07,05,52,12.90
2016,10,07,05,53,9.60
2016,10,07,05,54,4.30
2016,10,07,05,55,4.70
2016,10,07,05,56,4.00
2016,10,07,05,57,2.60
2016,10,07,05,58,8.10
2016,10,07,05,59,6.90
2016,10,07,06,00,3.00
2016,10,07,06,01,8.00
2016,10,07,06,02,6.80
2016,10,07,06,03,9.60
2016,10,07,06,04,7.80
2016,10,07,06,05,5.30
2016,10,07,06,06,8.20
2016,10,07,06,07,12.80
2016,10,07,06,08,6.10
2016,10,07,06,09,7.50
2016,10,07,06,10,6.20
2016,10,07,06,11,5.00
2016,10,07,06,12,5.00
2016,10,07,06,13,3.50
2016,10,07,06,14,3.70
2016,10,07,06,15,7.10
2016,10,07,06,16,11.20
2016,10,07,06,17,10.20
2016,10,07,06,18,9.30
2016,10,07,06,19,6.40
2016,10,07,06,20,7.80
2016,10,07,06,21,6.10
2016,10,07,06,22,3.60
2016,10,07,06,23,4.10
2016,10,07,06,24,5.60
2016,10,07,06,25,4.90
2016,10,07,06,26,10.80
2016,10,07,06,27,12.50
2016,10,07,06,28,10.40
2016,10,07,06,29,8.00
2016,10,07,06,30,6.20
2016,10,07,06,31,4.60
2016,10,07,06,32,3.70
2016,10,07,06,33,6.00
2016,10,07,06,34,6.20
2016,10,07,06,35,5.10
2016,10,07,06,36,10.00
2016,10,07,06,37,9.20
2016,10,07,06,38,9.40
2016,10,07,06,39,6.40
2016,10,07,06,40,12.20
2016,10,07,06,41,11.00
2016,10,07,06,42,11.70
2016,10,07,06,43,9.20
2016,10,07,06,44,10.20
2016,10,07,06,45,8.90
2016,10,07,06,46,6.30
2016,10,07,06,47,4.80
2016,10,07,06,48,4.50
2016,10,07,06,49,3.60
2016,10,07,06,50,2.70
2016,10,07,06,51,1.00
2016,10,07,06,52,1.60
2016,10,07,06,53,2.40
2016,10,07,06,54,3.30
2016,10,07,06,55,3.50
2016,10,07,06,56,7.20
2016,10,07,06,57,4.80
2016,10,07,06,58,8.50
2016,10,07,06,59,5.60
2016,10,07,07,00,4.50
2016,10,07,07,01,5.80
2016,10,07,07,02,5.30
2016,10,07,07,03,3.90
2016,10,07,07,04,3.60
2016,10,07,07,05,5.60
2016,10,07,07,06,9.00
2016,10,07,07,07,5.50
2016,10,07,07,08,9.80
2016,10,07,07,09,1.80
2016,10,07,07,10,1.80
2016,10,07,07,11,2.00
2016,10,07,07,12,7.20
2016,10,07,07,13,10.30
2016,10,07,07,14,10.80
2016,10,07,07,15,5.90
2016,10,07,07,16,2.50
2016,10,07,07,17,4.40
2016,10,07,07,18,7.80
2016,10,07,07,19,4.90
2016,10,07,07,20,8.00
2016,10,07,07,21,8.40
2016,10,07,07,22,8.60
2016,10,07,07,23,8.60
2016,10,07,07,24,8.10
2016,10,07,07,25,12.00
2016,10,07,07,26,10.80
2016,10,07,07,27,11.80
2016,10,07,07,28,8.10
2016,10,07,07,29,8.20
2016,10,07,07,30,4.20
2016,10,07,07,31,2.60
2016,10,07,07,32,8.70
2016,10,07,07,33,3.70
2016,10,07,07,34,9.50
2016,10,07,07,35,3.10
2016,10,07,07,36,7.30
2016,10,07,07,37,3.80
2016,10,07,07,38,16.40
2016,10,07,07,39,9.00
2016,10,07,07,40,4.70
2016,10,07,07,41,10.00
2016,10,07,07,42,3.90
2016,10,07,07,43,8.60
2016,10,07,07,44,11.50
2016,10,07,07,45,10.00
2016,10,07,07,46,9.00
2016,10,07,07,47,7.30
2016,10,07,07,48,13.00
2016,10,07,07,49,14.50
2016,10,07,07,50,15.40
2016,10,07,07,51,4.60
2016,10,07,07,52,4.30
2016,10,07,07,53,5.80
2016,10,07,07,54,17.70
2016,10,07,07,55,3.50
2016,10,07,07,56,2.40
2016,10,07,07,57,4.50
2016,10,07,07,58,7.80
2016,10,07,07,59,11.10
2016,10,07,08,00,8.60
2016,10,07,08,01,8.10
2016,10,07,08,02,6.60
2016,10,07,08,03,8.60
2016,10,07,08,04,4.80
2016,10,07,08,05,6.80
2016,10,07,08,06,3.10
2016,10,07,08,07,3.90
2016,10,07,08,08,4.20
2016,10,07,08,09,10.50
2016,10,07,08,10,15.80
2016,10,07,08,11,10.60
2016,10,07,08,12,8.00
2016,10,07,08,13,10.30
2016,10,07,08,14,12.80
2016,10,07,08,15,7.90
2016,10,07,08,16,8.80
2016,10,07,08,17,5.50
2016,10,07,08,18,5.60
2016,10,07,08,19,8.10
2016,10,07,08,20,9.20
2016,10,07,08,21,8.00
2016,10,07,08,22,5.00
2016,10,07,08,23,10.40
2016,10,07,08,24,11.70
2016,10,07,08,25,11.30
2016,10,07,08,26,6.90
2016,10,07,08,27,7.60
2016,10,07,08,28,11.10
2016,10,07,08,29,8.70
2016,10,07,08,30,8.40
2016,10,07,08,31,11.00
2016,10,07,08,32,9.30
2016,10,07,08,33,6.50
2016,10,07,08,34,6.80
2016,10,07,08,35,10.50
2016,10,07,08,36,8.30
2016,10,07,08,37,15.50
2016,10,07,08,38,10.50
2016,10,07,08,39,17.90
2016,10,07,08,40,14.40
2016,10,07,08,41,10.70
2016,10,07,08,42,7.30
2016,10,07,08,43,12.50
2016,10,07,08,44,15.90
2016,10,07,08,45,17.10
2016,10,07,08,46,14.60
2016,10,07,08,47,12.70
2016,10,07,08,48,12.10
2016,10,07,08,49,6.30
2016,10,07,08,50,7.30
2016,10,07,08,51,14.70
2016,10,07,08,52,8.40
2016,10,07,08,53,15.20
2016,10,07,08,54,11.10
2016,10,07,08,55,10.10
2016,10,07,08,56,11.60
2016,10,07,08,57,17.20
2016,10,07,08,58,19.30
2016,10,07,08,59,10.00
2016,10,07,09,00,7.80
2016,10,07,09,01,14.00
2016,10,07,09,02,11.30
2016,10,07,09,03,8.30
2016,10,07,09,04,3.90
2016,10,07,09,05,5.40
2016,10,07,09,06,2.50
2016,10,07,09,07,8.50
2016,10,07,09,08,5.50
2016,10,07,09,09,5.90
2016,10,07,09,10,9.70
2016,10,07,09,11,15.40
2016,10,07,09,12,13.60
2016,10,07,09,13,12.10
2016,10,07,09,14,9.10
2016,10,07,09,15,9.70
2016,10,07,09,16,6.50
2016,10,07,09,17,7.10
2016,10,07,09,18,15.00
2016,10,07,09,19,9.20
2016,10,07,09,20,12.00
2016,10,07,09,21,12.50
2016,10,07,09,22,7.50
2016,10,07,09,23,11.30
2016,10,07,09,24,11.90
2016,10,07,09,25,10.50
2016,10,07,09,26,8.80
2016,10,07,09,27,11.60
2016,10,07,09,28,10.90
2016,10,07,09,29,6.20
2016,10,07,09,30,9.70
2016,10,07,09,31,23.00
2016,10,07,09,32,17.10
2016,10,07,09,33,17.80
2016,10,07,09,34,12.10
2016,10,07,09,35,8.80
2016,10,07,09,36,4.40
2016,10,07,09,37,8.80
2016,10,07,09,38,10.50
2016,10,07,09,39,8.90
2016,10,07,09,40,16.40
2016,10,07,09,41,16.80
2016,10,07,09,42,15.80
2016,10,07,09,43,12.10
2016,10,07,09,44,6.40
2016,10,07,09,45,10.40
2016,10,07,09,46,7.80
2016,10,07,09,47,5.30
2016,10,07,09,48,9.30
2016,10,07,09,49,9.70
2016,10,07,09,50,7.10
2016,10,07,09,51,7.00
2016,10,07,09,52,8.40
2016,10,07,09,53,12.20
2016,10,07,09,54,9.50
2016,10,07,09,55,14.00
2016,10,07,09,56,9.10
2016,10,07,09,57,9.30
2016,10,07,09,58,8.40
2016,10,07,09,59,23.30
2016,10,07,10,00,14.30
2016,10,07,10,01,18.80
2016,10,07,10,02,7.60
2016,10,07,10,03,13.00
2016,10,07,10,04,16.10
2016,10,07,10,05,12.20
2016,10,07,10,06,9.20
2016,10,07,10,07,15.80
2016,10,07,10,08,9.70
2016,10,07,10,09,7.70
2016,10,07,10,10,9.40
2016,10,07,10,11,20.00
2016,10,07,10,12,18.70
2016,10,07,10,13,16.10
2016,10,07,10,14,8.40
2016,10,07,10,15,9.20
2016,10,07,10,16,8.00
2016,10,07,10,17,16.80
2016,10,07,10,18,17.00
2016,10,07,10,19,18.10
2016,10,07,10,20,12.40
2016,10,07,10,21,11.80
2016,10,07,10,22,6.40
2016,10,07,10,23,4.40
2016,10,07,10,24,8.80
2016,10,07,10,25,10.70
2016,10,07,10,26,14.40
2016,10,07,10,27,11.00
2016,10,07,10,28,10.50
2016,10,07,10,29,13.80
2016,10,07,10,30,7.60
2016,10,07,10,31,8.80
2016,10,07,10,32,9.30
2016,10,07,10,33,8.00
2016,10,07,10,34,10.30
2016,10,07,10,35,11.30
2016,10,07,10,36,9.80
2016,10,07,10,37,13.30
2016,10,07,10,38,9.60
2016,10,07,10,39,15.50
2016,10,07,10,40,9.10
2016,10,07,10,41,5.00
2016,10,07,10,42,5.10
2016,10,07,10,43,14.00
2016,10,07,10,44,9.30
2016,10,07,10,45,11.60
2016,10,07,10,46,12.30
2016,10,07,10,47,8.80
2016,10,07,10,48,6.60
2016,10,07,10,49,9.00
2016,10,07,10,50,15.80
2016,10,07,10,51,6.30
2016,10,07,10,52,14.40
2016,10,07,10,53,16.90
2016,10,07,10,54,14.40
2016,10,07,10,55,9.40
2016,10,07,10,56,10.50
2016,10,07,10,57,11.20
2016,10,07,10,58,9.70
2016,10,07,10,59,7.60
2016,10,07,11,00,5.70
2016,10,07,11,01,8.10
2016,10,07,11,02,12.10
2016,10,07,11,03,8.60
2016,10,07,11,04,17.10
2016,10,07,11,05,16.90
2016,10,07,11,06,15.80
2016,10,07,11,07,7.10
2016,10,07,11,08,6.70
2016,10,07,11,09,6.40
2016,10,07,11,10,9.60
2016,10,07,11,11,15.10
2016,10,07,11,12,11.40
2016,10,07,11,13,13.80
2016,10,07,11,14,17.00
2016,10,07,11,15,21.40
2016,10,07,11,16,24.50
2016,10,07,11,17,13.10
2016,10,07,11,18,11.60
2016,10,07,11,19,17.40
2016,10,07,11,20,17.50
2016,10,07,11,21,6.00
2016,10,07,11,22,8.40
2016,10,07,11,23,7.80
2016,10,07,11,24,8.80
2016,10,07,11,25,7.20
2016,10,07,11,26,14.20
2016,10,07,11,27,17.20
2016,10,07,11,28,16.90
2016,10,07,11,29,17.80
2016,10,07,11,30,17.20
2016,10,07,11,31,7.50
2016,10,07,11,32,14.30
2016,10,07,11,33,19.00
2016,10,07,11,34,12.40
2016,10,07,11,35,14.60
2016,10,07,11,36,17.20
2016,10,07,11,37,14.90
2016,10,07,11,38,11.30
2016,10,07,11,39,20.90
2016,10,07,11,40,14.70
2016,10,07,11,41,18.10
2016,10,07,11,42,15.00
2016,10,07,11,43,16.60
2016,10,07,11,44,22.80
2016,10,07,11,45,18.70
2016,10,07,11,46,23.00
2016,10,07,11,47,20.20
2016,10,07,11,48,24.80
2016,10,07,11,49,27.60
2016,10,07,11,50,23.40
2016,10,07,11,51,25.70
2016,10,07,11,52,21.90
2016,10,07,11,53,18.90
2016,10,07,11,54,22.00
2016,10,07,11,55,24.50
2016,10,07,11,56,24.00
2016,10,07,11,57,27.80
2016,10,07,11,58,24.70
2016,10,07,11,59,25.40
2016,10,07,12,00,25.00
2016,10,07,12,01,21.80
2016,10,07,12,02,21.20
2016,10,07,12,03,20.00
2016,10,07,12,04,21.20
2016,10,07,12,05,23.50
2016,10,07,12,06,19.60
2016,10,07,12,07,17.90
2016,10,07,12,08,19.20
2016,10,07,12,09,17.80
2016,10,07,12,10,21.00
2016,10,07,12,11,21.00
2016,10,07,12,12,23.30
2016,10,07,12,13,30.70
2016,10,07,12,14,24.40
2016,10,07,12,15,21.00
2016,10,07,12,16,25.80
2016,10,07,12,17,26.40
2016,10,07,12,18,25.40
2016,10,07,12,19,20.50
2016,10,07,12,20,25.50
2016,10,07,12,21,21.40
2016,10,07,12,22,26.60
2016,10,07,12,23,27.40
2016,10,07,12,24,23.70
2016,10,07,12,25,26.00
2016,10,07,12,26,21.60
2016,10,07,12,27,24.30
2016,10,07,12,28,28.60
2016,10,07,12,29,22.70
2016,10,07,12,30,18.60
2016,10,07,12,31,19.40
2016,10,07,12,32,17.60
2016,10,07,12,33,22.40
2016,10,07,12,34,16.20
2016,10,07,12,35,21.80
2016,10,07,12,36,13.60
2016,10,07,12,37,20.00
2016,10,07,12,38,21.50
2016,10,07,12,39,18.00
2016,10,07,12,40,21.50
2016,10,07,12,41,22.90
2016,10,07,12,42,16.90
2016,10,07,12,43,16.70
2016,10,07,12,44,18.30
2016,10,07,12,45,20.10
2016,10,07,12,46,19.20
2016,10,07,12,47,22.20
2016,10,07,12,48,20.40
2016,10,07,12,49,20.80
2016,10,07,12,50,19.90
2016,10,07,12,51,23.10
2016,10,07,12,52,17.60
2016,10,07,12,53,12.90
2016,10,07,12,54,16.20
2016,10,07,12,55,14.20
2016,10,07,12,56,20.30
2016,10,07,12,57,18.40
2016,10,07,12,58,16.90
2016,10,07,12,59,18.70
2016,10,07,13,00,23.30
2016,10,07,13,01,20.50
2016,10,07,13,02,21.60
2016,10,07,13,03,17.10
2016,10,07,13,04,17.50
2016,10,07,13,05,19.80
2016,10,07,13,06,19.60
2016,10,07,13,07,19.70
2016,10,07,13,08,16.30
2016,10,07,13,09,18.00
2016,10,07,13,10,16.40
2016,10,07,13,11,16.30
2016,10,07,13,12,10.70
2016,10,07,13,13,19.10
2016,10,07,13,14,23.70
2016,10,07,13,15,16.80
2016,10,07,13,16,17.10
2016,10,07,13,17,15.20
2016,10,07,13,18,11.80
2016,10,07,13,19,9.70
2016,10,07,13,20,8.50
2016,10,07,13,21,12.20
2016,10,07,13,22,16.70
2016,10,07,13,23,17.30
2016,10,07,13,24,17.90
2016,10,07,13,25,17.40
2016,10,07,13,26,14.90
2016,10,07,13,27,9.90
2016,10,07,13,28,10.80
2016,10,07,13,29,8.90
2016,10,07,13,30,15.40
2016,10,07,13,31,18.30
2016,10,07,13,32,8.50
2016,10,07,13,33,11.30
2016,10,07,13,34,7.90
2016,10,07,13,35,8.90
2016,10,07,13,36,9.70
2016,10,07,13,37,12.70
2016,10,07,13,38,20.30
2016,10,07,13,39,13.70
2016,10,07,13,40,7.60
2016,10,07,13,41,8.30
2016,10,07,13,42,19.20
2016,10,07,13,43,15.40
2016,10,07,13,44,12.90
2016,10,07,13,45,8.90
2016,10,07,13,46,10.90
2016,10,07,13,47,13.60
2016,10,07,13,48,18.50
2016,10,07,13,49,10.30
2016,10,07,13,50,11.70
2016,10,07,13,51,10.90
2016,10,07,13,52,5.60
2016,10,07,13,53,9.30
2016,10,07,13,54,6.80
2016,10,07,13,55,8.50
2016,10,07,13,56,1.20
2016,10,07,13,57,2.30
2016,10,07,13,58,7.90
2016,10,07,13,59,4.70
2016,10,07,14,00,6.80
2016,10,07,14,01,9.40
2016,10,07,14,02,6.60
2016,10,07,14,03,9.20
2016,10,07,14,04,10.50
2016,10,07,14,05,10.40
2016,10,07,14,06,16.70
2016,10,07,14,07,12.30
2016,10,07,14,08,13.00
2016,10,07,14,09,11.50
2016,10,07,14,10,9.60
2016,10,07,14,11,8.70
2016,10,07,14,12,6.80
2016,10,07,14,13,8.90
2016,10,07,14,14,11.70
2016,10,07,14,15,10.50
2016,10,07,14,16,8.00
2016,10,07,14,17,11.90
2016,10,07,14,18,10.40
2016,10,07,14,19,8.10
2016,10,07,14,20,10.10
2016,10,07,14,21,11.40
2016,10,07,14,22,7.60
2016,10,07,14,23,7.50
2016,10,07,14,24,2.70
2016,10,07,14,25,12.80
2016,10,07,14,26,11.90
2016,10,07,14,27,7.70
2016,10,07,14,28,8.00
2016,10,07,14,29,6.20
2016,10,07,14,30,8.30
2016,10,07,14,31,6.80
2016,10,07,14,32,7.50
2016,10,07,14,33,7.60
2016,10,07,14,34,11.30
2016,10,07,14,35,10.10
2016,10,07,14,36,14.80
2016,10,07,14,37,13.50
2016,10,07,14,38,14.00
2016,10,07,14,39,13.70
2016,10,07,14,40,12.00
2016,10,07,14,41,7.70
2016,10,07,14,42,8.10
2016,10,07,14,43,7.90
2016,10,07,14,44,8.70
2016,10,07,14,45,8.30
2016,10,07,14,46,8.50
2016,10,07,14,47,10.90
2016,10,07,14,48,10.70
2016,10,07,14,49,9.50
2016,10,07,14,50,8.70
2016,10,07,14,51,12.80
2016,10,07,14,52,11.20
2016,10,07,14,53,13.80
2016,10,07,14,54,12.20
2016,10,07,14,55,8.90
2016,10,07,14,56,9.30
2016,10,07,14,57,10.00
2016,10,07,14,58,7.10
2016,10,07,14,59,7.30
2016,10,07,15,00,7.00
2016,10,07,15,01,4.10
2016,10,07,15,02,4.60
2016,10,07,15,03,8.60
2016,10,07,15,04,7.60
2016,10,07,15,05,6.10
2016,10,07,15,06,4.70
2016,10,07,15,07,7.50
2016,10,07,15,08,10.10
2016,10,07,15,09,13.10
2016,10,07,15,10,13.30
2016,10,07,15,11,11.70
2016,10,07,15,12,7.10
2016,10,07,15,13,2.50
2016,10,07,15,14,1.90
2016,10,07,15,15,2.20
2016,10,07,15,16,1.20
2016,10,07,15,17,7.50
2016,10,07,15,18,9.10
2016,10,07,15,19,8.70
2016,10,07,15,20,5.40
2016,10,07,15,21,1.40
2016,10,07,15,22,3.50
2016,10,07,15,23,3.80
2016,10,07,15,24,2.70
2016,10,07,15,25,5.00
2016,10,07,15,26,9.00
2016,10,07,15,27,11.20
2016,10,07,15,28,9.50
2016,10,07,15,29,4.50
2016,10,07,15,30,2.40
2016,10,07,15,31,4.70
2016,10,07,15,32,7.00
2016,10,07,15,33,6.80
2016,10,07,15,34,4.10
2016,10,07,15,35,13.10
2016,10,07,15,36,4.40
2016,10,07,15,37,11.00
2016,10,07,15,38,7.60
2016,10,07,15,39,3.30
2016,10,07,15,40,1.70
2016,10,07,15,41,3.10
2016,10,07,15,42,4.20
2016,10,07,15,43,3.40
2016,10,07,15,44,3.60
2016,10,07,15,45,1.60
2016,10,07,15,46,1.90
2016,10,07,15,47,2.10
2016,10,07,15,48,8.00
2016,10,07,15,49,5.80
2016,10,07,15,50,8.40
2016,10,07,15,51,2.90
2016,10,07,15,52,3.30
2016,10,07,15,53,1.50
2016,10,07,15,54,5.00
2016,10,07,15,55,3.30
2016,10,07,15,56,9.00
2016,10,07,15,57,1.60
2016,10,07,15,58,2.60
2016,10,07,15,59,2.00
2016,10,07,16,00,13.40
2016,10,07,16,01,3.50
2016,10,07,16,02,7.00
2016,10,07,16,03,9.70
2016,10,07,16,04,4.00
2016,10,07,16,05,1.60
2016,10,07,16,06,3.10
2016,10,07,16,07,8.20
2016,10,07,16,08,4.70
2016,10,07,16,09,10.80
2016,10,07,16,10,10.40
2016,10,07,16,11,7.60
2016,10,07,16,12,6.80
2016,10,07,16,13,7.30
2016,10,07,16,14,6.60
2016,10,07,16,15,3.10
2016,10,07,16,16,4.70
2016,10,07,16,17,1.10
2016,10,07,16,18,4.00
2016,10,07,16,19,8.20
2016,10,07,16,20,7.20
2016,10,07,16,21,4.40
2016,10,07,16,22,4.90
2016,10,07,16,23,5.30
2016,10,07,16,24,5.30
2016,10,07,16,25,13.30
2016,10,07,16,26,7.70
2016,10,07,16,27,8.80
2016,10,07,16,28,6.80
2016,10,07,16,29,13.20
2016,10,07,16,30,11.30
2016,10,07,16,31,6.90
2016,10,07,16,32,6.40
2016,10,07,16,33,5.70
2016,10,07,16,34,9.40
2016,10,07,16,35,6.60
2016,10,07,16,36,3.50
2016,10,07,16,37,1.90
2016,10,07,16,38,1.70
2016,10,07,16,39,1.60
2016,10,07,16,40,1.50
2016,10,07,16,41,0.80
2016,10,07,16,42,0.70
2016,10,07,16,43,0.90
2016,10,07,16,44,1.30
2016,10,07,16,45,0.70
2016,10,07,16,46,7.10
2016,10,07,16,47,8.50
2016,10,07,16,48,7.30
2016,10,07,16,49,4.00
2016,10,07,16,50,5.20
2016,10,07,16,51,3.90
2016,10,07,16,52,7.20
2016,10,07,16,53,5.70
2016,10,07,16,54,0.60
2016,10,07,16,55,0.70
2016,10,07,16,56,0.50
2016,10,07,16,57,0.60
2016,10,07,16,58,1.60
2016,10,07,16,59,0.60
2016,10,07,17,00,5.10
2016,10,07,17,01,5.30
2016,10,07,17,02,4.30
2016,10,07,17,03,1.70
2016,10,07,17,04,1.70
2016,10,07,17,05,2.00
2016,10,07,17,06,2.80
2016,10,07,17,07,5.90
2016,10,07,17,08,7.20
2016,10,07,17,09,6.50
2016,10,07,17,10,5.30
2016,10,07,17,11,3.50
2016,10,07,17,12,1.00
2016,10,07,17,13,1.20
2016,10,07,17,14,1.20
2016,10,07,17,15,1.50
2016,10,07,17,16,1.40
2016,10,07,17,17,2.10
2016,10,07,17,18,2.20
2016,10,07,17,19,1.30
2016,10,07,17,20,1.20
2016,10,07,17,21,1.20
2016,10,07,17,22,1.10
2016,10,07,17,23,0.30
2016,10,07,17,24,0.80
2016,10,07,17,25,2.30
2016,10,07,17,26,1.60
2016,10,07,17,27,1.50
2016,10,07,17,28,0.90
2016,10,07,17,29,1.40
2016,10,07,17,30,1.80
2016,10,07,17,31,2.40
2016,10,07,17,32,7.90
2016,10,07,17,33,6.20
2016,10,07,17,34,1.40
2016,10,07,17,35,4.30
2016,10,07,17,36,2.50
2016,10,07,17,37,1.40
2016,10,07,17,38,0.70
2016,10,07,17,39,3.90
2016,10,07,17,40,3.20